Latest Weather Observations for Lucinda

IDQ60801

Issued at 8:35 pm EST Wednesday 20 August 2014 (issued every 30 minutes, with the page automatically refreshed every 10 minutes)

About weather observations | Map of weather stations | Latest weather observations for QLD | Other Formats
Station Details ID: 032141 Name: LUCINDA POINT Lat: -18.52 Lon: 146.39 Height: 10.0 m
Data from the previous 72 hours. | See also: Recent months for locations in Queensland
Date/Time
EST
Temp
°C
App
Temp
°C
Dew
Point
Rel
Hum
%
Delta-T
°C
Wind Press
QNH
hPa
Press
MSL
hPa
Rain
since 9 am
mm
Dir
 
Spd
km/h
Gust
km/h
Spd
kts
Gust
kts
20/08:30pm 21.7 18.5 11.1 51 5.8 E 19 28 10 15 1017.9 1017.9 0.0
20/08:00pm 21.8 18.5 11.5 52 5.7 ENE 20 28 11 15 1017.8 1017.8 0.0
20/07:30pm 21.8 18.5 11.5 52 5.7 E 20 28 11 15 1017.6 1017.6 0.0
20/07:00pm 21.7 19.0 11.7 53 5.6 E 17 24 9 13 1017.3 1017.3 0.0
20/06:30pm 21.6 18.3 11.6 53 5.6 E 20 28 11 15 1017.0 1017.0 0.0
20/06:00pm 21.5 19.1 13.9 62 4.4 E 19 26 10 14 1016.6 1016.6 0.0
20/05:30pm 21.9 19.4 14.0 61 4.6 E 20 30 11 16 1016.3 1016.3 0.0
20/05:00pm 21.8 18.0 13.7 60 4.7 ESE 26 30 14 16 1016.3 1016.3 0.0
20/04:30pm 21.8 18.3 13.4 59 4.8 ESE 24 28 13 15 1016.0 1016.0 0.0
20/04:00pm 22.2 19.4 13.3 57 5.1 ESE 20 26 11 14 1015.5 1015.5 0.0
20/03:30pm 22.7 21.0 12.6 53 5.8 ESE 13 17 7 9 1015.5 1015.5 0.0
20/03:00pm 22.1 21.2 13.7 59 4.9 SSE 11 15 6 8 1015.4 1015.4 0.0
20/02:30pm 22.0 21.4 13.4 58 5.0 SSE 9 13 5 7 1015.5 1015.5 0.0
20/02:00pm 21.9 21.0 13.8 60 4.7 SSE 11 15 6 8 1015.9 1015.9 0.0
20/01:30pm 22.3 21.9 14.2 60 4.7 S 9 13 5 7 1016.3 1016.3 0.0
20/01:00pm 21.7 21.1 13.6 60 4.7 S 9 13 5 7 1016.5 1016.5 0.0
20/12:30pm 21.8 21.4 14.2 62 4.4 S 9 13 5 7 1016.9 1016.9 0.0
20/12:00pm 20.7 19.6 13.2 62 4.3 SSW 11 15 6 8 1017.4 1017.4 0.0
20/11:30am 21.1 19.7 13.5 62 4.4 S 13 19 7 10 1017.7 1017.7 0.0
20/11:00am 20.3 18.6 12.5 61 4.4 SSW 13 17 7 9 1018.3 1018.3 0.0
20/10:30am 19.7 18.2 12.0 61 4.3 SSW 11 15 6 8 1018.5 1018.5 0.0
20/10:00am 19.5 17.8 12.3 63 4.0 SSW 13 17 7 9 1018.7 1018.7 0.0
20/09:30am 19.1 17.1 12.6 66 3.6 SW 15 19 8 10 1018.7 1018.7 0.0
20/09:00am 18.0 16.1 11.8 67 3.4 SW 13 15 7 8 1018.2 1018.2 0.0
20/08:30am 18.0 15.4 12.0 68 3.3 WSW 17 19 9 10 1018.2 1018.2 0.0
20/08:00am 18.1 15.7 12.5 70 3.1 SW 17 19 9 10 1018.1 1018.1 0.0
20/07:30am 17.9 15.6 11.7 67 3.4 WSW 15 17 8 9 1017.8 1017.8 0.0
20/07:00am 17.5 14.4 11.5 68 3.3 WSW 19 20 10 11 1017.6 1017.6 0.0
20/06:30am 17.6 14.9 11.6 68 3.3 WSW 17 19 9 10 1017.2 1017.2 0.0
20/06:00am 18.1 15.5 11.9 67 3.4 WSW 17 19 9 10 1017.0 1017.0 0.0
20/05:30am 18.1 15.3 11.2 64 3.7 SW 17 20 9 11 1016.6 1016.6 0.0
20/05:00am 17.7 15.0 11.7 68 3.3 WSW 17 19 9 10 1016.6 1016.6 0.0
20/04:30am 17.2 14.4 11.5 69 3.1 WSW 17 19 9 10 1016.6 1016.6 0.0
20/04:00am 16.7 13.4 11.0 69 3.1 SW 19 22 10 12 1016.4 1016.4 0.0
20/03:30am 17.2 14.0 11.9 71 2.9 SW 20 24 11 13 1016.4 1016.4 0.0
20/03:00am 17.7 14.9 12.6 72 2.8 SW 19 20 10 11 1016.4 1016.4 0.0
20/02:30am 17.6 15.1 12.3 71 2.9 SW 17 19 9 10 1016.4 1016.4 0.0
20/02:00am 17.6 15.5 12.5 72 2.8 WSW 15 17 8 9 1016.6 1016.6 0.0
20/01:30am 17.9 16.0 13.0 73 2.7 WSW 15 17 8 9 1016.6 1016.6 0.0
20/01:00am 18.3 16.0 13.0 71 3.0 WSW 17 17 9 9 1016.8 1016.8 0.0
20/12:30am 20.0 19.1 13.7 67 3.6 WSW 11 13 6 7 1016.9 1016.9 0.0
20/12:00am 20.6 19.5 12.1 58 4.7 NW 9 11 5 6 1017.1 1017.1 0.0
 
Date/Time
EST
Temp
°C
App
Temp
°C
Dew
Point
Rel
Hum
%
Delta-T
°C
Wind Press
QNH
hPa
Press
MSL
hPa
Rain
since 9 am
mm
Dir
 
Spd
km/h
Gust
km/h
Spd
kts
Gust
kts
19/11:30pm 20.9 18.7 10.7 52 5.6 NNW 13 15 7 8 1017.2 1017.2 0.0
19/11:00pm 21.1 18.5 10.6 51 5.7 NNW 15 19 8 10 1017.4 1017.4 0.0
19/10:30pm 21.0 17.4 9.9 49 6.0 NNW 19 20 10 11 1017.4 1017.4 0.0
19/10:00pm 20.9 18.6 10.4 51 5.7 NW 13 19 7 10 1017.5 1017.5 0.0
19/09:30pm 21.2 17.2 10.4 50 5.9 NNW 22 26 12 14 1017.4 1017.4 0.0
19/09:00pm 21.2 16.9 9.4 47 6.3 NNW 22 26 12 14 1017.1 1017.1 0.0
19/08:30pm 21.1 17.4 10.3 50 5.9 NNW 20 26 11 14 1016.9 1016.9 0.0
19/08:00pm 21.2 17.4 9.8 48 6.1 NNW 20 26 11 14 1016.7 1016.7 0.0
19/07:30pm 21.4 17.5 9.3 46 6.5 N 20 28 11 15 1016.3 1016.3 0.0
19/07:00pm 21.3 16.7 8.2 43 6.8 N 22 26 12 14 1016.0 1016.0 0.0
19/06:30pm 21.3 17.7 8.2 43 6.8 NNE 17 20 9 11 1015.6 1015.6 0.0
19/06:00pm 21.2 17.2 8.1 43 6.8 NNE 19 20 10 11 1015.2 1015.2 0.0
19/05:30pm 21.5 17.2 7.7 41 7.2 NNE 20 24 11 13 1015.0 1015.0 0.0
19/05:00pm 21.9 17.8 8.8 43 6.9 N 20 24 11 13 1014.9 1014.9 0.0
19/04:30pm 21.4 16.9 6.9 39 7.4 NE 20 24 11 13 1014.8 1014.8 0.0
19/04:00pm 21.5 17.3 7.3 40 7.3 ENE 19 22 10 12 1014.6 1014.6 0.0
19/03:30pm 21.6 17.7 8.8 44 6.8 ENE 19 20 10 11 1014.6 1014.6 0.0
19/03:00pm 22.0 18.8 7.0 38 7.7 ENE 13 19 7 10 1014.6 1014.6 0.0
19/02:30pm 22.0 18.9 7.4 39 7.6 ENE 13 19 7 10 1015.1 1015.1 0.0
19/02:00pm 22.3 19.7 7.7 39 7.6 E 11 15 6 8 1015.5 1015.5 0.0
19/01:30pm 22.3 20.3 6.9 37 7.9 SSE 7 11 4 6 1015.9 1015.9 0.0
19/01:00pm 22.0 19.3 5.8 35 8.1 S 9 15 5 8 1016.6 1016.6 0.0
19/12:30pm 21.5 18.1 5.8 36 7.9 S 13 17 7 9 1017.2 1017.2 0.0
19/12:00pm 21.1 18.6 8.4 44 6.6 S 11 17 6 9 1017.7 1017.7 0.0
19/11:30am 20.9 18.1 8.5 45 6.5 S 13 20 7 11 1018.3 1018.3 0.0
19/11:00am 20.7 17.3 7.7 43 6.7 S 15 19 8 10 1018.6 1018.6 0.0
19/10:30am 20.5 17.7 8.5 46 6.3 S 13 19 7 10 1019.2 1019.2 0.0
19/10:00am 20.2 17.5 8.8 48 6.0 SSW 13 17 7 9 1019.6 1019.6 0.0
19/09:30am 19.6 16.1 8.6 49 5.7 SSW 17 22 9 12 1019.7 1019.7 0.0
19/09:00am 18.8 15.1 10.1 57 4.6 SW 20 24 11 13 1019.6 1019.6 0.0
19/08:30am 18.2 14.4 9.8 58 4.4 SW 20 24 11 13 1019.4 1019.4 0.0
19/08:00am 17.7 14.0 9.3 58 4.4 SW 19 20 10 11 1019.2 1019.2 0.0
19/07:30am 17.5 13.9 9.9 61 4.0 WSW 19 22 10 12 1019.0 1019.0 0.0
19/07:00am 16.1 12.9 11.1 72 2.7 WSW 19 20 10 11 1018.7 1018.7 0.0
19/06:30am 16.6 13.5 11.7 73 2.7 WSW 19 24 10 13 1018.4 1018.4 0.0
19/06:00am 16.8 13.5 11.5 71 2.9 WSW 20 24 11 13 1018.1 1018.1 0.0
19/05:30am 17.1 14.0 12.2 73 2.7 SW 20 20 11 11 1017.9 1017.9 0.0
19/05:00am 17.5 14.4 12.2 71 2.9 SW 20 22 11 12 1017.6 1017.6 0.0
19/04:30am 16.9 14.2 12.8 77 2.3 SW 19 20 10 11 1017.4 1017.4 0.0
19/04:00am 16.9 13.7 12.0 73 2.7 SW 20 22 11 12 1017.4 1017.4 0.0
19/03:30am 17.4 15.1 11.9 70 3.0 WSW 15 17 8 9 1017.3 1017.3 0.0
19/03:00am 17.7 15.1 11.9 69 3.2 SW 17 19 9 10 1017.1 1017.1 0.0
19/02:30am 17.8 15.2 12.0 69 3.2 SW 17 19 9 10 1016.8 1016.8 0.0
19/02:00am 18.1 15.6 12.3 69 3.2 SW 17 20 9 11 1016.7 1016.7 0.0
19/01:30am 18.2 15.3 12.4 69 3.2 SW 19 22 10 12 1016.8 1016.8 0.0
19/01:00am 17.9 15.0 12.4 70 3.0 SW 19 22 10 12 1017.0 1017.0 0.0
19/12:30am 18.2 15.2 12.4 69 3.2 SW 20 22 11 12 1017.2 1017.2 0.0
19/12:00am 18.3 16.0 13.0 71 3.0 WSW 17 19 9 10 1017.1 1017.1 0.0
 
Date/Time
EST
Temp
°C
App
Temp
°C
Dew
Point
Rel
Hum
%
Delta-T
°C
Wind Press
QNH
hPa
Press
MSL
hPa
Rain
since 9 am
mm
Dir
 
Spd
km/h
Gust
km/h
Spd
kts
Gust
kts
18/11:30pm 20.1 18.8 11.3 57 4.8 NW 9 11 5 6 1017.1 1017.1 0.0
18/11:00pm 20.0 18.8 11.5 58 4.7 NW 9 13 5 7 1017.2 1017.2 0.0
18/10:30pm 20.3 19.5 12.8 62 4.2 NW 9 13 5 7 1017.2 1017.2 0.0
18/10:00pm 20.4 19.9 12.6 61 4.4 W 7 9 4 5 1017.2 1017.2 0.0
18/09:30pm 20.5 20.9 11.4 56 5.0 CALM 0 0 0 0 1017.0 1017.0 0.0
18/09:00pm 20.6 19.5 10.1 51 5.7 NNW 6 9 3 5 1016.8 1016.8 0.0
18/08:30pm 20.8 18.9 10.6 52 5.6 NNW 11 15 6 8 1016.6 1016.6 0.0
18/08:00pm 21.0 19.3 9.9 49 6.0 N 9 13 5 7 1016.4 1016.4 0.0
18/07:30pm 21.2 18.5 9.1 46 6.4 N 13 15 7 8 1016.0 1016.0 0.0
18/07:00pm 21.2 18.8 10.1 49 6.0 NNE 13 17 7 9 1015.6 1015.6 0.0
18/06:30pm 21.1 17.7 9.0 46 6.4 N 17 20 9 11 1015.3 1015.3 0.0
18/06:00pm 21.3 17.7 9.9 48 6.1 NE 19 20 10 11 1015.1 1015.1 0.0
18/05:30pm 21.5 17.5 8.1 42 7.0 NNE 19 22 10 12 1015.0 1015.0 0.0
18/05:00pm 21.4 17.4 8.3 43 6.9 ENE 19 22 10 12 1014.9 1014.9 0.0
18/04:30pm 21.3 17.1 8.2 43 6.8 NE 20 22 11 12 1014.7 1014.7 0.0
18/04:00pm 21.2 17.2 9.1 46 6.4 NE 20 24 11 13 1014.5 1014.5 0.0
18/03:30pm 21.2 16.9 9.4 47 6.3 ENE 22 26 12 14 1014.3 1014.3 0.0
18/03:00pm 22.5 19.6 8.2 40 7.5 ESE 13 20 7 11 1014.5 1014.5 0.0
18/02:30pm 22.7 19.6 5.6 33 8.6 SE 11 15 6 8 1014.6 1014.6 0.0
18/02:00pm 21.8 19.4 7.2 39 7.5 SSE 9 17 5 9 1014.9 1014.9 0.0
18/01:30pm 21.1 18.7 8.7 45 6.5 S 11 17 6 9 1015.2 1015.2 0.0
18/01:00pm 21.3 18.3 7.5 41 7.1 S 13 19 7 10 1015.7 1015.7 0.0
18/12:30pm 20.7 17.4 6.3 39 7.2 S 13 19 7 10 1016.3 1016.3 0.0
18/12:00pm 20.5 17.1 5.7 38 7.3 S 13 20 7 11 1016.8 1016.8 0.0
18/11:30am 20.4 16.2 5.6 38 7.3 S 17 24 9 13 1017.3 1017.3 0.0
18/11:00am 20.0 15.3 6.0 40 6.9 S 20 22 11 12 1017.8 1017.8 0.0
18/10:30am 20.1 15.6 4.2 35 7.6 S 17 20 9 11 1018.1 1018.1 0.0
18/10:00am 19.7 16.0 4.6 37 7.3 SSW 13 17 7 9 1018.5 1018.5 0.0
18/09:30am 19.5 15.4 4.4 37 7.3 SSW 15 22 8 12 1018.5 1018.5 0.0
18/09:00am 19.3 14.0 3.1 34 7.6 WSW 20 26 11 14 1018.3 1018.3 0.0
18/08:30am 19.0 14.2 5.5 41 6.6 WSW 20 26 11 14 1018.1 1018.1 0.0
18/08:00am 18.5 13.5 4.7 40 6.6 WSW 20 24 11 13 1018.0 1018.0 0.0
18/07:30am 18.3 12.9 6.2 45 6.0 WSW 24 28 13 15 1017.6 1017.6 0.0
18/07:00am 18.3 11.8 4.8 41 6.5 WSW 28 32 15 17 1017.2 1017.2 0.0
18/06:30am 18.3 11.6 5.8 44 6.1 WSW 30 33 16 18 1017.0 1017.0 0.0
18/06:00am 18.3 12.2 6.8 47 5.7 WSW 28 30 15 16 1016.8 1016.8 0.0
18/05:30am 18.4 12.1 5.9 44 6.1 WSW 28 32 15 17 1016.4 1016.4 0.0
18/05:00am 18.9 12.8 6.4 44 6.2 WSW 28 32 15 17 1016.1 1016.1 0.0
18/04:30am 18.6 13.7 8.3 51 5.3 SW 24 30 13 16 1015.9 1015.9 0.0
18/04:00am 18.3 13.6 9.1 55 4.8 WSW 24 28 13 15 1016.1 1016.1 0.0
18/03:30am 18.5 13.1 7.9 50 5.4 SW 26 30 14 16 1016.1 1016.1 0.0
18/03:00am 19.4 13.7 6.5 43 6.4 SW 26 30 14 16 1016.2 1016.2 0.0
18/02:30am 19.1 13.9 8.7 51 5.4 SW 26 30 14 16 1016.0 1016.0 0.0
18/02:00am 20.1 16.6 10.8 55 5.1 SW 20 24 11 13 1016.0 1016.0 0.0
18/01:30am 20.2 16.8 11.4 57 4.9 SW 20 24 11 13 1016.2 1016.2 0.0
18/01:00am 20.0 17.0 12.7 63 4.1 SSW 20 24 11 13 1016.2 1016.2 0.0
18/12:30am 19.6 17.1 14.0 70 3.2 SW 20 24 11 13 1016.2 1016.2 0.0
18/12:00am 19.2 16.6 13.8 71 3.1 SW 20 24 11 13 1016.2 1016.2 0.0
 
Date/Time
EST
Temp
°C
App
Temp
°C
Dew
Point
Rel
Hum
%
Delta-T
°C
Wind Press
QNH
hPa
Press
MSL
hPa
Rain
since 9 am
mm
Dir
 
Spd
km/h
Gust
km/h
Spd
kts
Gust
kts
17/11:30pm 19.6 17.9 14.8 74 2.8 SW 17 20 9 11 1016.0 1016.0 0.0
17/11:00pm 20.1 18.0 13.6 66 3.7 SW 17 22 9 12 1016.0 1016.0 0.0
17/10:30pm 20.4 18.6 14.5 69 3.4 WSW 17 20 9 11 1015.7 1015.7 0.0
17/10:00pm 21.8 20.5 13.7 60 4.7 SSW 13 15 7 8 1015.7 1015.7 0.0
17/09:30pm 21.7 22.0 12.3 55 5.3 N 2 6 1 3 1015.4 1015.4 0.0
17/09:00pm 22.1 20.3 12.1 53 5.6 NNW 13 17 7 9 1015.0 1015.0 0.0

Other Formats:

Comma delimited format used in spreadsheet applications
http://www.bom.gov.au/fwo/IDQ60801/IDQ60801.94295.axf

JavaScript Object Notation format (JSON) in row-major order
http://www.bom.gov.au/fwo/IDQ60801/IDQ60801.94295.json